This is the latest recevied weather packets stored in our database for station/object OK2BOZ-1. If no packets are shown the sender has not sent any weather packets the latest 10 day(s).
| Time | Temp. | Humidity | Pressure | Rain* | Wind** | Luminosity | Snow |
|---|---|---|---|---|---|---|---|
| 1777206695 | 17.78° C | 34% | 1021.2 hPa | - | - | - | - |
| 1777206380 | 18.33° C | 31% | 1021.3 hPa | - | - | - | - |
| 1777206065 | 17.78° C | 31% | 1021.3 hPa | - | - | - | - |
| 1777205750 | 18.33° C | 31% | 1021.3 hPa | - | - | - | - |
| 1777205435 | 17.22° C | 33% | 1021.3 hPa | - | - | - | - |
| 1777205119 | 16.11° C | 33% | 1021.1 hPa | - | - | - | - |
| 1777204805 | 16.67° C | 33% | 1021.2 hPa | - | - | - | - |
| 1777204489 | 16.67° C | 34% | 1021.3 hPa | - | - | - | - |
| 1777204174 | 16.11° C | 34% | 1021.3 hPa | - | - | - | - |
| 1777203859 | 16.11° C | 34% | 1021.3 hPa | - | - | - | - |
| 1777203544 | 16.11° C | 34% | 1021.2 hPa | - | - | - | - |
| 1777203229 | 16.67° C | 32% | 1021.2 hPa | - | - | - | - |
| 1777202914 | 17.22° C | 32% | 1021.1 hPa | - | - | - | - |
| 1777202599 | 16.67° C | 32% | 1021.1 hPa | - | - | - | - |
| 1777202284 | 16.67° C | 33% | 1021.1 hPa | - | - | - | - |
| 1777201969 | 16.11° C | 35% | 1021.2 hPa | - | - | - | - |
| 1777201654 | 16.11° C | 32% | 1021.2 hPa | - | - | - | - |
| 1777201339 | 17.22° C | 31% | 1021.2 hPa | - | - | - | - |
| 1777201024 | 16.67° C | 33% | 1021.1 hPa | - | - | - | - |
| 1777200709 | 16.11° C | 33% | 1021.2 hPa | - | - | - | - |
| 1777200395 | 16.67° C | 32% | 1021.2 hPa | - | - | - | - |
| 1777200080 | 17.22° C | 33% | 1021.2 hPa | - | - | - | - |
| 1777199764 | 16.67° C | 33% | 1021.2 hPa | - | - | - | - |
| 1777199449 | 16.67° C | 32% | 1021.1 hPa | - | - | - | - |
| 1777199135 | 16.67° C | 35% | 1021.1 hPa | - | - | - | - |
* Rain since midnight (hover to see other rain measurements)
** Current wind speed in m/s (hover to see current wind gust speed)